• Join FlightAware (Why Join?)
  • Login
  • US Flag 
Gobble Gobble! 
10:43PM EST


 

Airport Tracker/Info


-or-


 

Live Flight TrackerFlight Track Log ✈ N100WX ✈ 18-Apr-2013 ✈ KBED - KMCO

Flight Track Log - Related Links

Times and Time Zones

All times are in EDT time to prevent confusion due to time zone crossing. See the N100WX flight status page for this flight to view local times or setup timezone preferences in your user account.

Time Position Orientation Groundspeed Altitude Reporting Facility
EDT Latitude Longitude Course Direction KTS MPH feet Rate Location/Type
01:11PM 42.4833 -71.2667 213° Southwest 193 222 1,000  Level KA90
01:12PM 42.5333 -71.2667 360° North 207 238 2,700 1,200 Climbing KA90
01:13PM 42.5167 -71.3167 246° West 219 252 3,200 1,860 Climbing KA90
01:14PM 42.4667 -71.3167 180° South 195 224 6,300 2,820 Climbing KA90
01:15PM 42.4000 -71.3167 180° South 202 232 8,900 2,220 Climbing KA90
01:16PM 42.3333 -71.3000 170° South 212 244 10,800 1,980 Climbing KA90
01:17PM 42.0501 -71.6589 213° Southwest  Level Estimated
01:17PM 42.2833 -71.2833 166° South 237 273 12,900  Level KA90
01:17PM 42.2694 -71.2786 166° South 251 289 13,400 840 Climbing Boston Center
01:18PM 42.2125 -71.2292 147° Southeast 251 289 14,000 300 Climbing Boston Center
01:19PM 42.1494 -71.1744 147° Southeast 257 296 14,100 480 Climbing Boston Center
01:20PM 42.0864 -71.1225 149° Southeast 262 302 15,000 1,620 Climbing Boston Center
01:21PM 42.0272 -71.0650 144° Southeast 262 302 17,400 1,860 Climbing Boston Center
01:22PM 41.9664 -71.0133 148° Southeast 262 302 18,700 1,260 Climbing Boston Center
01:23PM 41.9008 -70.9561 147° Southeast 262 302 19,900 1,500 Climbing Boston Center
01:24PM 41.8272 -70.8994 150° Southeast 282 325 21,800 1,680 Climbing Boston Center
01:25PM 41.7628 -70.9094 187° South 252 290 23,400 1,560 Climbing Boston Center
01:26PM 41.7094 -70.9692 220° Southwest 224 258 25,000 1,440 Climbing Boston Center
01:27PM 41.6558 -71.0342 222° Southwest 243 280 26,300 1,380 Climbing Boston Center
01:28PM 41.6025 -71.0964 221° Southwest 262 302 27,800 1,320 Climbing Boston Center
01:29PM 41.5450 -71.1586 219° Southwest 267 307 29,100 1,320 Climbing Boston Center
01:30PM 41.4894 -71.2208 220° Southwest 267 307 30,500 1,320 Climbing Boston Center
01:31PM 41.4336 -71.2856 221° Southwest 267 307 31,800 1,200 Climbing Boston Center
01:32PM 41.3761 -71.3528 221° Southwest 272 313 33,000 1,020 Climbing Boston Center
01:33PM 41.3183 -71.4175 220° Southwest 272 313 33,900 480 Climbing Boston Center
01:34PM 41.2522 -71.4875 219° Southwest 285 328 34,000  Climbing Boston Center
01:35PM 41.1861 -71.5686 223° Southwest 313 360 34,000  Level Boston Center
01:36PM 41.1369 -71.6656 236° Southwest 318 366 34,000  Level Boston Center
01:37PM 41.1000 -71.7789 247° West 323 372 34,000  Level Boston Center
01:38PM 41.0506 -71.8758 236° Southwest 328 377 34,000  Level Boston Center
01:39PM 40.9947 -71.9533 226° Southwest 328 377 34,000  Level Boston Center
01:40PM 40.9325 -72.0389 226° Southwest 328 377 34,000  Level Boston Center
01:41PM 40.8642 -72.1272 224° Southwest 323 372 34,000 540 Level Boston Center
01:42PM 40.8100 -72.1933 223° Southwest 318 366 35,100 960 Climbing Boston Center
01:43PM 40.7519 -72.2647 223° Southwest 305 351 36,000 240 Climbing Boston Center
01:46PM 40.5975 -72.4611 224° Southwest 324 373 36,000  Level Washington Center
01:47PM 40.5250 -72.5544 224° Southwest 347 399 36,000  Level Washington Center
01:48PM 40.4542 -72.6447 224° Southwest 355 409 36,000  Level Washington Center
01:49PM 40.3856 -72.7322 224° Southwest 360 414 36,000  Level Washington Center
01:50PM 40.3208 -72.8164 225° Southwest 348 400 36,000  Level Washington Center
01:51PM 40.2542 -72.9006 224° Southwest 343 395 36,000  Level Washington Center
01:52PM 40.1892 -72.9817 224° Southwest 338 389 36,000  Level Washington Center
01:53PM 40.1244 -73.0656 225° Southwest 338 389 36,000  Level Washington Center
01:54PM 40.0594 -73.1464 224° Southwest 338 389 36,000  Level Washington Center
01:55PM 39.9964 -73.2272 224° Southwest 333 383 36,000  Level Washington Center
01:56PM 39.9292 -73.3081 223° Southwest 333 383 36,000  Level Washington Center
01:57PM 39.8639 -73.3858 222° Southwest 328 377 36,000  Level Washington Center
01:58PM 39.8008 -73.4633 223° Southwest 321 369 36,000  Level Washington Center
01:59PM 39.7356 -73.5436 223° Southwest 321 369 36,000  Level Washington Center
02:00PM 39.6722 -73.6208 223° Southwest 321 369 36,000  Level Washington Center
02:01PM 39.6069 -73.7008 223° Southwest 321 369 36,000  Level Washington Center
02:02PM 39.5414 -73.7806 223° Southwest 321 369 36,000  Level Washington Center
02:03PM 39.4781 -73.8600 224° Southwest 321 369 36,000  Level Washington Center
02:04PM 39.4125 -73.9394 223° Southwest 321 369 36,000  Level Washington Center
02:05PM 39.3489 -74.0189 224° Southwest 321 369 36,000  Level Washington Center
02:06PM 39.2792 -74.1008 222° Southwest 321 369 36,000  Level Washington Center
02:07PM 39.2153 -74.1772 223° Southwest 321 369 36,000  Level Washington Center
02:08PM 39.1497 -74.2586 224° Southwest 321 369 36,000  Level Washington Center
02:09PM 39.0839 -74.3347 222° Southwest 321 369 36,000  Level Washington Center
02:10PM 39.0178 -74.4161 224° Southwest 321 369 36,000  Level Washington Center
02:11PM 38.9519 -74.4944 223° Southwest 321 369 36,000  Level Washington Center
02:12PM 38.8858 -74.5703 222° Southwest 321 369 36,000  Level Washington Center
02:13PM 38.8219 -74.6511 225° Southwest 321 369 36,000  Level Washington Center
02:14PM 38.7539 -74.7292 222° Southwest 321 369 36,000  Level Washington Center
02:15PM 38.6875 -74.7992 219° Southwest 321 369 36,000  Level Washington Center
02:16PM 38.6172 -74.8769 221° Southwest 328 377 36,000  Level Washington Center
02:17PM 38.5467 -74.9494 219° Southwest 334 384 36,000  Level Washington Center
02:18PM 38.4783 -75.0242 221° Southwest 334 384 36,000  Level Washington Center
02:19PM 38.4097 -75.0908 217° Southwest 329 379 36,000  Level Washington Center
02:20PM 38.3411 -75.1708 222° Southwest 329 379 36,000  Level Washington Center
02:21PM 38.2664 -75.2481 219° Southwest 324 373 36,000  Level Washington Center
02:22PM 38.2019 -75.3247 223° Southwest 324 373 36,000  Level Washington Center
02:23PM 38.1311 -75.3939 218° Southwest 324 373 36,000  Level Washington Center
02:24PM 38.0647 -75.4678 221° Southwest 324 373 36,000  Level Washington Center
02:25PM 37.9875 -75.5206 208° Southwest 324 373 36,000  Level Washington Center
02:26PM 37.9144 -75.5839 214° Southwest 324 373 36,000  Level Washington Center
02:27PM 37.8417 -75.6417 212° Southwest 324 373 36,000  Level Washington Center
02:28PM 37.7664 -75.7022 212° Southwest 324 373 36,000  Level Washington Center
02:29PM 37.6914 -75.7625 212° Southwest 324 373 36,000  Level Washington Center
02:30PM 37.6181 -75.8200 212° Southwest 324 373 36,000  Level Washington Center
02:31PM 37.5472 -75.8800 214° Southwest 324 373 36,000  Level Washington Center
02:32PM 37.4739 -75.9372 212° Southwest 324 373 36,000  Level Washington Center
02:33PM 37.4008 -75.9969 213° Southwest 324 373 36,000  Level Washington Center
02:34PM 37.3275 -76.0542 212° Southwest 324 373 36,000  Level Washington Center
02:35PM 37.2522 -76.1136 212° Southwest 324 373 36,000  Level Washington Center
02:36PM 37.1833 -76.1603 208° Southwest 324 373 36,000  Level Washington Center
02:37PM 37.1142 -76.2194 214° Southwest 319 367 36,000  Level Washington Center
02:38PM 37.0803 -76.3156 246° West 296 341 36,000  Level Washington Center
02:39PM 37.0503 -76.4117 249° West 296 341 36,000  Level Washington Center
02:40PM 37.0206 -76.5103 249° West 301 346 36,000  Level Washington Center
02:41PM 36.9636 -76.5769 223° Southwest 293 337 36,000  Level Washington Center
02:42PM 36.8942 -76.6308 212° Southwest 286 329 36,000  Level Washington Center
02:43PM 36.8250 -76.6842 212° Southwest 291 335 36,000  Level Washington Center
02:44PM 36.7556 -76.7325 209° Southwest 296 341 36,000  Level Washington Center
02:45PM 36.6819 -76.7936 214° Southwest 296 341 36,000  Level Washington Center
02:46PM 36.6189 -76.8392 210° Southwest 301 346 36,000  Level Washington Center
02:47PM 36.5517 -76.8900 211° Southwest 296 341 36,000  Level Washington Center
02:48PM 36.4822 -76.9456 213° Southwest 296 341 36,000  Level Washington Center
02:49PM 36.4106 -77.0036 213° Southwest 296 341 36,000  Level Washington Center
02:50PM 36.3431 -77.0617 215° Southwest 296 341 36,000  Level Washington Center
02:51PM 36.2736 -77.1147 212° Southwest 296 341 36,000  Level Washington Center
02:52PM 36.2147 -77.1650 215° Southwest 296 341 36,000  Level Washington Center
02:53PM 36.1472 -77.2203 213° Southwest 296 341 36,000 840 Level Washington Center
02:54PM 36.0733 -77.2803 213° Southwest 303 349 37,700 960 Climbing Washington Center
02:55PM 36.0100 -77.3175 205° Southwest 291 335 38,000 120 Climbing Washington Center
02:56PM 35.9283 -77.3492 197° South 296 341 38,000  Level Washington Center
02:57PM 35.8464 -77.3831 199° South 308 354 38,000  Level Washington Center
02:58PM 35.7603 -77.4169 198° South 313 360 38,000  Level Washington Center
02:59PM 35.6742 -77.4508 198° South 320 368 38,000  Level Washington Center
03:00PM 35.6003 -77.5206 218° Southwest 315 362 38,000  Level Washington Center
03:01PM 35.5303 -77.5881 218° Southwest 320 368 38,000  Level Washington Center
03:02PM 35.4603 -77.6550 218° Southwest 320 368 38,000  Level Washington Center
03:03PM 35.3900 -77.7244 219° Southwest 325 374 38,000  Level Washington Center
03:04PM 35.3222 -77.7914 219° Southwest 325 374 38,000  Level Washington Center
03:05PM 35.2519 -77.8556 217° Southwest 325 374 38,000  Level Washington Center
03:06PM 35.1842 -77.9225 219° Southwest 325 374 38,000  Level Washington Center
03:07PM 35.1158 -77.9889 218° Southwest 325 374 38,000  Level Washington Center
03:08PM 35.0478 -78.0556 219° Southwest 325 374 38,000  Level Washington Center
03:09PM 34.9425 -78.1519 217° Southwest 307 353 38,000  Level Jacksonville Center
03:10PM 34.8761 -78.2164 219° Southwest 312 359 38,000  Level Jacksonville Center
03:11PM 34.8075 -78.2808 218° Southwest 312 359 38,000  Level Jacksonville Center
03:12PM 34.7411 -78.3450 218° Southwest 312 359 38,000  Level Jacksonville Center
03:13PM 34.6747 -78.4092 218° Southwest 312 359 38,000  Level Jacksonville Center
03:14PM 34.6058 -78.4733 217° Southwest 312 359 38,000  Level Jacksonville Center
03:15PM 34.5392 -78.5347 217° Southwest 312 359 38,000  Level Jacksonville Center
03:16PM 34.4725 -78.5986 218° Southwest 312 359 38,000  Level Jacksonville Center
03:17PM 34.4058 -78.6597 217° Southwest 312 359 38,000  Level Jacksonville Center
03:18PM 34.3369 -78.7233 217° Southwest 312 359 38,000  Level Jacksonville Center
03:19PM 34.2703 -78.7869 218° Southwest 312 359 38,000  Level Jacksonville Center
03:20PM 34.2014 -78.8478 216° Southwest 312 359 38,000  Level Jacksonville Center
03:21PM 34.1303 -78.9114 217° Southwest 312 359 38,000  Level Jacksonville Center
03:22PM 34.0656 -78.9744 219° Southwest 312 359 38,000  Level Jacksonville Center
03:23PM 33.9967 -79.0378 217° Southwest 312 359 38,000  Level Jacksonville Center
03:24PM 33.9297 -79.1008 218° Southwest 312 359 38,000  Level Jacksonville Center
03:25PM 33.8606 -79.1636 217° Southwest 312 359 38,000  Level Jacksonville Center
03:26PM 33.7914 -79.2242 216° Southwest 312 359 38,000  Level Jacksonville Center
03:27PM 33.7244 -79.2867 218° Southwest 312 359 38,000  Level Jacksonville Center
03:28PM 33.6672 -79.3342 215° Southwest 287 330 38,000  Level Jacksonville Center
03:29PM 33.6003 -79.3992 219° Southwest 292 336 38,000  Level Jacksonville Center
03:30PM 33.5331 -79.4617 218° Southwest 303 349 38,000  Level Jacksonville Center
03:31PM 33.4619 -79.5267 217° Southwest 308 354 38,000  Level Jacksonville Center
03:32PM 33.3925 -79.5864 216° Southwest 313 360 38,000  Level Jacksonville Center
03:33PM 33.3167 -79.6414 211° Southwest 313 360 38,000  Level Jacksonville Center
03:34PM 33.2450 -79.6986 214° Southwest 325 374 38,000  Level Jacksonville Center
03:35PM 33.1633 -79.7636 214° Southwest 325 374 38,000  Level Jacksonville Center
03:36PM 33.0894 -79.8208 213° Southwest 325 374 38,000  Level Jacksonville Center
03:37PM 33.0136 -79.8803 213° Southwest 325 374 38,000  Level Jacksonville Center
03:38PM 32.9400 -79.9372 213° Southwest 325 374 38,000  Level Jacksonville Center
03:39PM 32.8639 -79.9942 212° Southwest 325 374 38,000  Level Jacksonville Center
03:40PM 32.7922 -80.0533 215° Southwest 325 374 38,000  Level Jacksonville Center
03:41PM 32.7183 -80.1100 213° Southwest 325 374 38,000  Level Jacksonville Center
03:42PM 32.6444 -80.1689 214° Southwest 325 374 38,000  Level Jacksonville Center
03:43PM 32.5706 -80.2253 213° Southwest 325 374 38,000  Level Jacksonville Center
03:44PM 32.4967 -80.2842 214° Southwest 325 374 38,000  Level Jacksonville Center
03:45PM 32.4206 -80.3431 213° Southwest 325 374 38,000  Level Jacksonville Center
03:46PM 32.3486 -80.3992 213° Southwest 325 374 38,000  Level Jacksonville Center
03:47PM 32.2747 -80.4553 213° Southwest 320 368 38,000  Level Jacksonville Center
03:48PM 32.1986 -80.5136 213° Southwest 332 382 38,000  Level Jacksonville Center
03:49PM 32.1347 -80.5667 215° Southwest 325 374 38,000  Level Jacksonville Center
03:50PM 32.0503 -80.6303 213° Southwest 325 374 38,000  Level Jacksonville Center
03:51PM 31.9822 -80.6808 212° Southwest 325 374 38,000  Level Jacksonville Center
03:52PM 31.9000 -80.7442 213° Southwest 330 380 38,000  Level Jacksonville Center
03:53PM 31.8236 -80.8019 213° Southwest 324 373 38,000  Level Jacksonville Center
03:54PM 31.7556 -80.8547 213° Southwest 324 373 38,000  Level Jacksonville Center
03:55PM 31.6731 -80.9128 211° Southwest 324 373 38,000  Level Jacksonville Center
03:56PM 31.5986 -80.9706 213° Southwest 324 373 38,000  Level Jacksonville Center
03:57PM 31.5306 -81.0206 212° Southwest 329 379 38,000 -600 Level Jacksonville Center
03:58PM 31.4439 -81.0881 214° Southwest 336 387 36,900 -1,020 Descending Jacksonville Center
03:59PM 31.3611 -81.1506 213° Southwest 361 415 36,000 -480 Descending Jacksonville Center
04:00PM 31.2764 -81.2153 213° Southwest 366 421 36,000  Level Jacksonville Center
04:01PM 31.1981 -81.2775 214° Southwest 356 410 36,000  Level Jacksonville Center
04:02PM 31.1150 -81.3275 207° Southwest 344 396 36,000  Level Jacksonville Center
04:03PM 31.0147 -81.3144 174° South 336 387 36,000  Level Jacksonville Center
04:04PM 30.9164 -81.3042 175° South 348 400 36,000  Level Jacksonville Center
04:05PM 30.8161 -81.2911 174° South 353 406 36,000 -300 Level Jacksonville Center
04:06PM 30.7178 -81.2808 175° South 358 412 35,400 -780 Descending Jacksonville Center
04:07PM 30.6111 -81.2681 174° South 370 426 34,500 -720 Descending Jacksonville Center
04:08PM 30.5044 -81.2531 173° South 383 441 34,000 -300 Descending Jacksonville Center
04:09PM 30.3978 -81.2406 174° South 388 447 34,000  Level Jacksonville Center
04:10PM 30.2933 -81.2278 174° South 388 447 34,000  Level Jacksonville Center
04:11PM 30.1825 -81.2153 174° South 396 456 34,000 -900 Level Jacksonville Center
04:12PM 30.0653 -81.2031 175° South 409 471 32,200 -2,100 Descending Jacksonville Center
04:13PM 29.9461 -81.1906 175° South 423 487 29,900 -2,340 Descending Jacksonville Center
04:14PM 29.8269 -81.1761 174° South 428 493 27,600 -2,340 Descending Jacksonville Center
04:15PM 29.7119 -81.1636 175° South 428 493 25,300 -2,220 Descending Jacksonville Center
04:16PM 29.6011 -81.1514 175° South 418 481 23,200 -2,100 Descending Jacksonville Center
04:17PM 29.4944 -81.1389 174° South 406 467 21,200 -1,980 Descending Jacksonville Center
04:18PM 29.4006 -81.1239 172° South 381 438 19,300 -1,800 Descending Jacksonville Center
04:19PM 29.3083 -81.1136 174° South 357 411 17,600 -1,740 Descending Jacksonville Center
04:20PM 29.2206 -81.1081 177° South 331 381 15,900 -1,680 Descending Jacksonville Center
04:21PM 29.1369 -81.1000 175° South 318 366 14,300 -1,620 Descending Jacksonville Center
04:22PM 29.0514 -81.0944 177° South 313 360 12,700 -1,200 Descending Jacksonville Center
04:23PM 28.9719 -81.0864 175° South 308 354 12,000 -840 Descending Jacksonville Center
04:24PM 28.8969 -81.0831 178° South 289 333 11,100 -960 Descending Jacksonville Center
04:25PM 28.8333 -81.0833 180° South 266 306 10,400 -1,800 Descending Orlando TRACON
04:26PM 28.7667 -81.1167 204° Southwest 238 274 7,700 -2,280 Descending Orlando TRACON
04:27PM 28.7333 -81.1500 221° Southwest 236 272 5,900 -2,100 Descending Orlando TRACON
04:28PM 28.6833 -81.2167 229° Southwest 220 253 3,500 -1,320 Descending Orlando TRACON
04:29PM 28.6333 -81.2500 210° Southwest 207 238 3,100 -300 Descending Orlando TRACON
04:30PM 28.5833 -81.3000 221° Southwest 212 244 2,900 -420 Descending Orlando TRACON
04:31PM 28.5500 -81.3167 204° Southwest 166 191 2,400 -900 Descending Orlando TRACON
04:32PM 28.5000 -81.3333 196° South 120 138 1,300 -840 Descending Orlando TRACON
04:33PM 28.4833 -81.3333 180° South 109 125 700 -600 Descending Orlando TRACON
04:35PM 28.4294 -81.3090 127° Southeast  Level Estimated
04:42PM 28.4294 -81.3090 336° Northwest  Level Estimated
04:43PM 28.4294 -81.3090 336° Northwest  Level Estimated
04:44PM 28.4294 -81.3090 336° Northwest  Level Estimated
04:45PM 28.4294 -81.3090 336° Northwest  Level Estimated